Weather History for Memphis, TN

Change the Weather History Date:

Wednesday, December 28, 2011

  Actual Average Record
Temperature  
Mean Temperature 42 °F 42 °F  
Max Temperature 52 °F 50 °F 74 °F (1946)
Min Temperature 31 °F 33 °F 5 °F (1894)
Degree Days  
Heating Degree Days 23 24  
Month to date heating degree days 525 595  
Since 1 July heating degree days 960 1094  
Cooling Degree Days 0 0  
Month to date cooling degree days 0 0  
Year to date cooling degree days 2564 2256  
Moisture  
Dew Point 30 °F    
Average Humidity 65    
Maximum Humidity 89    
Minimum Humidity 41    
Precipitation  
Precipitation 0.00 in 0.16 in 2.69 in (1946)
Month to date precipitation 8.55 5.26  
Year to date precipitation 58.36 53.20  
Snow  
Snow 0.00 in 0.00 in 1.60 in (1935)
Month to date snowfall 1.3 0.1  
Since 1 July snowfall 1.4 0.1  
Snow Depth 0.00 in    
Sea Level Pressure  
Sea Level Pressure 30.12 in    
Wind  
Wind Speed 4 mph (SW)    
Max Wind Speed 10 mph    
Max Gust Speed 17 mph    
Visibility 10 miles    
Events      
T = Trace of Precipitation, MM = Missing Value Source: NWS Daily Summary

Daily Weather History Graph

Daily Weather History Graph

Search for Another Location

Airport:

Trip Planner

Search our weather history database for the weather conditions in past years. The results will help you decide how hot, cold, wet, or windy it might be!

Date:

Astronomy

Dec. 28, 2011 Rise Set
Actual Time 7:07 AM CST 4:55 PM CST
Civil Twilight 6:38 AM CST 5:24 PM CST
Nautical Twilight 6:07 AM CST 5:55 PM CST
Astronomical Twilight 5:36 AM CST 6:26 PM CST
Moon 9:42 AM CST (12/28) 9:21 PM CST (12/28)
Length of Visible Light 10h 45m
Length of Day
9h 48m
Waxing Crescent, 18% of the Moon is Illuminated
Dec 28
Waxing Crescent
Jan 1
First Quarter
Jan 9
Full
Jan 16
Last Quarter
Jan 23
New

Hourly Weather History & Observations

Time (CST) Temp. Windchill Dew Point Humidity Pressure Visibility Wind Dir Wind Speed Gust Speed Precip Events Conditions
12:54 AM 39.9 °F 36.7 °F 30.0 °F 68% 30.13 in 10.0 mi WNW 4.6 mph - N/A   Clear
1:54 AM 37.9 °F 35.5 °F 30.0 °F 73% 30.13 in 10.0 mi West 3.5 mph - N/A   Clear
2:54 AM 37.0 °F - 30.0 °F 76% 30.15 in 10.0 mi Calm Calm - N/A   Clear
3:54 AM 37.0 °F - 30.0 °F 76% 30.15 in 10.0 mi Calm Calm - N/A   Clear
4:54 AM 35.1 °F - 28.9 °F 78% 30.15 in 10.0 mi Calm Calm - N/A   Clear
5:54 AM 33.1 °F - 28.9 °F 85% 30.15 in 10.0 mi Calm Calm - N/A   Clear
6:54 AM 32.0 °F - 28.0 °F 85% 30.15 in 10.0 mi Calm Calm - N/A   Scattered Clouds
7:54 AM 34.0 °F - 30.0 °F 85% 30.17 in 10.0 mi Calm Calm - N/A   Partly Cloudy
8:54 AM 41.0 °F - 32.0 °F 70% 30.20 in 10.0 mi Calm Calm - N/A   Partly Cloudy
9:54 AM 45.0 °F 42.6 °F 32.0 °F 60% 30.18 in 10.0 mi SSE 4.6 mph - N/A   Partly Cloudy
10:54 AM 48.9 °F - 30.9 °F 50% 30.17 in 10.0 mi SSW 5.8 mph - N/A   Partly Cloudy
11:54 AM 51.1 °F - 30.0 °F 44% 30.13 in 10.0 mi West 5.8 mph - N/A   Scattered Clouds
12:54 PM 50.0 °F - 30.0 °F 46% 30.11 in 10.0 mi WSW 5.8 mph - N/A   Mostly Cloudy
1:54 PM 52.0 °F - 28.9 °F 41% 30.10 in 10.0 mi SW 6.9 mph - N/A   Mostly Cloudy
2:54 PM 51.1 °F - 28.9 °F 43% 30.10 in 10.0 mi SW 5.8 mph - N/A   Partly Cloudy
3:54 PM 50.0 °F - 30.9 °F 48% 30.11 in 10.0 mi West 8.1 mph - N/A   Partly Cloudy
4:54 PM 48.0 °F - 30.9 °F 52% 30.10 in 10.0 mi Calm Calm - N/A   Partly Cloudy
5:54 PM 43.0 °F 39.5 °F 30.9 °F 62% 30.10 in 10.0 mi South 5.8 mph - N/A   Clear
6:54 PM 44.1 °F 41.5 °F 32.0 °F 63% 30.10 in 10.0 mi SSW 4.6 mph - N/A   Clear
7:54 PM 39.9 °F 35.8 °F 30.9 °F 70% 30.10 in 10.0 mi South 5.8 mph - N/A   Clear
8:54 PM 39.2 °F 35.0 °F 30.2 °F 70% 30.08 in 10.0 mi South 5.8 mph - N/A   Clear
9:54 PM 39.0 °F 35.7 °F 32.0 °F 76% 30.08 in 10.0 mi SSW 4.6 mph - N/A   Clear
10:54 PM 39.0 °F 35.7 °F 32.0 °F 76% 30.08 in 10.0 mi SSW 4.6 mph - N/A   Clear
11:54 PM 39.9 °F 35.1 °F 33.1 °F 77% 30.05 in 10.0 mi SSW 6.9 mph - N/A   Clear